Other Public Products
Issued by NWS Grand Forks, ND

Home | Current Version | Previous Version | Text Only | Print | Product List | Glossary On
Versions: 1 2 3 4 5 6 7 8 9 10 11 12 13 14 15 16 17 18 19 20 21 22 23 24 25 26 27 28 29 30 31 32 33 34 35 36 37 38 39 40 41 42 43 44 45 46 47 48 49 50
000
FPUS83 KFGF 011931
OPUFGF
PRAIRIE TO PINES WEATHER ROUNDUP
NATIONAL WEATHER SERVICE EASTERN NORTH DAKOTA/GRAND FORKS ND
100 PM CST SUN FEB 01 2015

 **SATELLITE DATA USED TO AUGMENT SKY COVER AT AUTOMATED STATIONS**
 *****  WEATHER ACROSS EASTERN NORTH DAKOTA  *****

CITY           SKY/WX    TMP DP  RH WIND       PRES   REMARKS
GRAND FORKS    MOSUNNY   -2 -15  54 N8        30.54F WCI -17
GRAND FORKS AF SUNNY     -1 -16  49 N8        30.53F WCI -16
GRAND CITY NWS   N/A     -8 N/A N/A N9          N/A  WCI -25
BUXTON           N/A      0 -13  54 NW12        N/A  WCI -17
DEVILS LAKE    SUNNY     -2 -17  50 NW8       30.45F WCI -17
FARGO          FAIR       3 -12  49 N15G23    30.48F WCI -16
WAHPETON ARPT  CLEAR      5  -9  51 N16G22    30.43F WCI -14
$$

 *****  WEATHER ACROSS CENTRAL AND WESTERN NORTH DAKOTA  *****

CITY           SKY/WX    TMP DP  RH WIND       PRES   REMARKS
JAMESTOWN      SUNNY      1 -14  49 N12       30.45F WCI -16
BISMARCK       SUNNY      2 -13  49 VRB6      30.48F WCI  -9
MINOT          SUNNY      0 -15  49 S7        30.42F WCI -13
MINOT AFB      SUNNY      1 -12  55 SW2       30.42F
GARRISON         N/A     -2 -14  56 SW6       30.43F WCI -14
WILLISTON      SUNNY      2  -6  69 SW9       30.41F WCI -13
DICKINSON      SUNNY      0  -9  65 W6        30.34F WCI -12
HETTINGER      SUNNY      2  -5  72 W10       30.38F WCI -14
$$

 *****  OTHER OBSERVATIONS NORTHEAST NORTH DAKOTA  *****

CITY           SKY/WX    TMP DP  RH WIND       PRES   REMARKS
WALHALLA         N/A     -2 -17  50 N3        30.51F
LANGDON        NOT AVBL
CAVALIER       FAIR      -2 -15  55 NW5       30.52F WCI -12
GRAFTON        NOT AVBL
CANDO          FAIR       0 -13  55 W10       30.44F WCI -17
FORT TOTTEN      N/A     -2 -19  43 NW5       29.95  WCI -12
ROLLA          FAIR      -2 -15  55 SW12      30.38F WCI -20
RUGBY          FAIR      -2 -17  50 W8        30.44F WCI -17
 ***** THE ABOVE OBSERVATIONS ARE NON NWS ARE NOT QUALITY
        CONTROLLED AND MAY MIS-REPORT RAIN FOR SNOW...
$$

 *****  OTHER OBSERVATIONS SOUTHEAST NORTH DAKOTA *****

CITY           SKY/WX    TMP DP  RH WIND       PRES   REMARKS
COOPERSTOWN    NOT AVBL
VALLEY CITY    FAIR       0 -13  55 N12       30.45F WCI -18
OAKES            N/A      1 -11  55 N14G21    30.44F WCI -17
GWINNER        CLEAR      5 -11  47 N14G23    30.45F WCI -12
BUFFALO        NOT AVBL
WYNDMERE         N/A      3 -11  51 N15         N/A  WCI -15
 ***** THE ABOVE OBSERVATIONS ARE NON NWS ARE NOT QUALITY
       CONTROLLED AND MAY MIS-REPORT RAIN FOR SNOW...
$$

  *****  WEATHER ACROSS NORTHERN MINNESOTA  *****

CITY           SKY/WX    TMP DP  RH WIND       PRES   REMARKS
FLAG ISLAND    SUNNY     -9 -18  64 CALM      30.45F
WARROAD        SUNNY     -6 -17  59 SE5       30.47F WCI -17
ROSEAU         SUNNY     -6 -15  65 W7        30.48F WCI -20
HALLOCK        SUNNY     -6 -17  59 NW5       30.52F WCI -17
THF RVR FALLS  SUNNY     -4 -13  65 NW8       30.46F WCI -19
HALSTAD          N/A      1 -13  51 N14         N/A  WCI -17
FOSSTON        SUNNY      3 -11  51 N9        30.43F WCI -11
BAUDETTE       SUNNY     -8 -18  61 NW9       30.44F WCI -25
WASKISH        SUNNY     -2 -11  65 W6        30.41F WCI -14
CROOKSTON      SUNNY     -2 -11  65 N10G16    30.52F WCI -19
$$
  *****  WEATHER ACROSS CENTRAL AND WEST MINNESOTA  *****

CITY           SKY/WX    TMP DP  RH WIND       PRES   REMARKS
BEMIDJI        SUNNY     -1 -14  54 N7        30.38F WCI -15
PARK RAPIDS    SUNNY      3 -16  40 N8        30.34F WCI -10
WADENA         SUNNY      5 -13  43 N10       30.33F WCI -10
DETROIT LAKES  SUNNY      5  -9  51 N10       30.38F WCI -10
MOORHEAD       FAIR       3 -11  51 N13G20    30.47F WCI -14
FERGUS FALLS   SUNNY      7 -11  43 N10       30.42F WCI  -8
ELBOW LAKE     FAIR       8  -5  55 N12       30.35F WCI  -8
MORRIS MN      SUNNY     12   0  57 N16       30.33F WCI  -4
STAPLES        SUNNY      7 -17  33 NE9       30.32F WCI  -7
WHEATON        SUNNY      3  -8  60 NW17G24   30.42F WCI -17
$$
  *****  WEATHER ELSEWHERE ACROSS MINNESOTA  *****

CITY           SKY/WX    TMP DP  RH WIND       PRES   REMARKS
DULUTH         SUNNY      7 -14  37 N10       30.28F WCI  -8
INTRNTL FALLS  SUNNY     -3 -16  53 N7        30.41F WCI -16
ELY            SUNNY      0 -17  46 N5        30.32F WCI -10
CLOQUET        SUNNY      7 -15  36 N9        30.29F WCI  -7
BRAINERD       SUNNY      9 -13  36 N12       30.32F WCI  -6
HIBBING        SUNNY      3 -16  40 N8        30.34F WCI -10
ALEXANDRIA     SUNNY      9  -1  64 N15       30.31F WCI  -8
SAINT CLOUD    MOSUNNY   14   0  53 NE12G21   30.28F WCI   0
MINNEAPOLIS    CLOUDY    16   2  54 N17G28    30.23F WCI   0
$$

  *****  WEATHER ACROSS SOUTH DAKOTA  *****

CITY           SKY/WX    TMP DP  RH WIND       PRES   REMARKS
SIOUX FALLS    LGT SNOW   7   0  73 N21G32    30.24F BLWGSNOWWCI -13
BROOKINGS      NOT AVBL
WATERTOWN      MOSUNNY    5  -2  72 N17       30.29F WCI -14
HURON          MIX PCPN   4  -4  69 N20       30.40S WCI -17
SISSETON         N/A      2  -9  60 N18       30.41F WCI -19
ABERDEEN       SUNNY      4  -8  57 N16       30.45F WCI -15
MITCHELL       MIX PCPN   3  -3  76 N22       30.37F WCI -19
PIERRE         CLOUDY     2  -6  69 N20       30.44F WCI -19
MOBRIDGE       SUNNY      3 -11  52 N14       30.42F WCI -15
RAPID CITY     SUNNY     10   4  76 N15       30.32F WCI  -7
$$

  *****  SOME WEATHER IN NEARBY STATES *****

CITY           SKY/WX    TMP DP  RH WIND       PRES   REMARKS
GLASGOW MT     SUNNY      4  -2  76 SE9       30.32F WCI -10
GREAT FALLS MT PTSUNNY   19  12  74 SW3       30.05F
CHEYENNE WY    MOSUNNY   21  12  68 N14G22    30.11F WCI   8
SCOTTSBLUFF NE PTSUNNY   19   8  62 N22       30.26F WCI   2
OMAHA NE       SNOW      17  13  84 N29G41    30.06R VSB 1/2 WCI  -2
DES MOINES IA  SNOW      20  15  81 NE17G35   29.92R VSB 1/2 WCI   5
DAVENPORT IA   SNOW      24  20  84 NE24G33   29.79F VSB 1/4 WCI   8
CHICAGO IL     HVY SNOW  25  23  92 NE20G31   29.77F VSB 1/4 WCI  11
EAU CLAIRE WI  CLOUDY    14   0  53 NE15G24   30.17F WCI  -1
LA CROSSE WI   LGT SNOW  16   9  74 N12       30.10F WCI   3
$$

  *****  SOME NATIONAL WEATHER *****

CITY           SKY/WX    TMP DP  RH WIND       PRES   REMARKS
LA GUARDIA NY  PTSUNNY   35  18  49 W9        30.14F
RALEIGH NC     PTSUNNY   54  19  25 SW12      30.13F
ATLANTA GA     LGT RAIN  55  46  71 S9        30.02F
NEW ORLEANS LA CLOUDY    73  62  68 SW9       29.94F
OKLAHOMA CITY  PTSUNNY   39  25  57 N29G38    30.06S
ALBUQUERQUE NM MOSUNNY   45  31  58 NW7       30.15F
SALT LAKE CITY MOSUNNY   44  28  53 S7        30.23F
LOS ANGELES CA MOSUNNY   66  52  60 CALM      30.12S
BOISE ID       CLOUDY    41  28  60 SE8       30.18F
SEATTLE WA     CLOUDY    43  39  87 SE12      30.06F
$$

*** WEATHER ACROSS MANITOBA...SASKATCHEWAN AND ONTARIO ***
                ***ONTARIO***

CITY           SKY/WX    TMP DP  RH WIND       PRES   REMARKS
GERALDTON      MOSUNNY   -8 -18  59 W3        30.31F
THUNDER BAY    MOSUNNY    3 -15  43 NW10      30.39F WCI -12
SIOUX LOOKOUT  MOSUNNY  -11 -20  64 W6        30.38F WCI -25
TORONTO        FLURRIES  12   3  67 NE10      30.19F WCI  -1
BIG TROUT LK   SUNNY    -15 -24  64 W10G17    30.26F WCI -35
PICKLE LAKE    SUNNY     -8 -20  54 W7        30.29F WCI -22
DRYDEN         SUNNY     -8 -20  54 SW7       30.38F WCI -22
KENORA         SUNNY     -9 -20  59 N3        30.41F
$$
                *** MANITOBA***

CITY           SKY/WX    TMP DP  RH WIND       PRES   REMARKS
BRANDON        SUNNY     -9 -18  64 W9        30.44F WCI -27
DAUPHIN        SUNNY     -2 -15  55 W8        30.41F WCI -17
ISLAND LAKE    SUNNY     -9 -22  54 W8        30.32F WCI -26
PILOT MOUND      N/A     -8 -20  54 W6          N/A  WCI -21
THE PAS        PTSUNNY   -4 -15  59 SW9       30.31F WCI -20
THOMPSON       CRYSTALS -11 -24  53 W10       30.24F WCI -30
WINNIPEG       SUNNY     -6 -18  54 SW5       30.52F WCI -17
LYNN LAKE      MOSUNNY   -9 -18  64 SW10      30.13F WCI -28
CHURCHILL      CRYSTALS -20 -29  63 W9        30.16F WCI -40
GILLAM         PTSUNNY  -17 -27  58 W9        30.22F WCI -36
$$
                ***SASKATCHEWAN***

CITY           SKY/WX    TMP DP  RH WIND       PRES   REMARKS
ESTEVAN        MOSUNNY    3  -9  55 SW12      30.36F WCI -13
KINDERSLEY     CRYSTALS   3  -2  78 S8        30.15F WCI -10
LLOYDMINSTER   MOSUNNY    5   0  78 SW9       30.12F WCI  -9
PRINCE ALBERT  FLURRIES   1  -6  71 SW8       30.23F WCI -12
REGINA         PTSUNNY   -2  -8  78 S9        30.31F WCI -18
YORKTON        SUNNY     -6 -18  54 SW7       30.34F WCI -20


USA.gov is the U.S. government's official web portal to all federal, state and local government web resources and services.